CD170 EDSB-ZZZ

Flight info

Callsign CD170
Flight time N/A
Altitude 2000
Route EDSB/03
Aircraft C400

Departure

Time 2026-04-28 06:47
Airport Karlsruhe Baden-Baden Airport (EDSB)

Arrival

Time N/A
Airport ZZZ
Time Latitude Longitude Altitude Speed Heading
2026-04-28 06:42 48.78349 8.09029 411 ft 5 kts 262°
2026-04-28 06:42 48.78271 8.08930 411 ft 21 kts 215°
2026-04-28 06:43 48.78261 8.08791 411 ft 14 kts 291°
2026-04-28 06:43 48.78270 8.08657 411 ft 13 kts 217°
2026-04-28 06:43 48.78195 8.08586 411 ft 14 kts 214°
2026-04-28 06:43 48.78089 8.08485 411 ft 22 kts 212°
2026-04-28 06:44 48.77936 8.08343 411 ft 29 kts 212°
2026-04-28 06:44 48.77748 8.08166 411 ft 34 kts 210°
2026-04-28 06:44 48.77535 8.07967 411 ft 36 kts 212°
2026-04-28 06:44 48.77336 8.07782 411 ft 24 kts 211°
2026-04-28 06:45 48.77331 8.07638 411 ft 3 kts 304°
2026-04-28 06:45 48.77343 8.07608 412 ft 14 kts 306°
2026-04-28 06:46 48.77392 8.07552 412 ft 14 kts
2026-04-28 06:46 48.77589 8.07721 411 ft 64 kts 30°
2026-04-28 06:46 48.78132 8.08230 444 ft 114 kts 32°
2026-04-28 06:46 48.78865 8.08939 623 ft 137 kts 33°
2026-04-28 06:47 48.79812 8.09353 803 ft 153 kts 349°
2026-04-28 06:47 48.80513 8.08181 995 ft 166 kts 281°
2026-04-28 06:47 48.80068 8.06591 1116 ft 178 kts 218°
2026-04-28 06:47 48.79000 8.05701 1303 ft 169 kts 207°
2026-04-28 06:48 48.77957 8.04917 1315 ft 166 kts 208°
2026-04-28 06:48 48.76968 8.04028 1371 ft 166 kts 214°
2026-04-28 06:48 48.75997 8.03051 1371 ft 169 kts 214°
2026-04-28 06:48 48.75010 8.02048 1368 ft 173 kts 214°
2026-04-28 06:49 48.74025 8.01045 1367 ft 173 kts 214°
2026-04-28 06:49 48.73009 8.00054 1390 ft 168 kts 202°
2026-04-28 06:49 48.72080 8.00612 1545 ft 150 kts 109°
2026-04-28 06:49 48.72342 8.01948 1397 ft 136 kts 45°
2026-04-28 06:50 48.72947 8.03018 1175 ft 129 kts 48°
2026-04-28 06:50 48.73592 8.03899 1026 ft 121 kts 39°
2026-04-28 06:50 48.74278 8.04594 849 ft 115 kts 31°
2026-04-28 06:50 48.74887 8.05180 743 ft 92 kts 33°
2026-04-28 06:51 48.75413 8.05683 690 ft 87 kts 30°
2026-04-28 06:51 48.75960 8.06184 610 ft 108 kts 32°
2026-04-28 06:51 48.76641 8.06822 491 ft 108 kts 32°
2026-04-28 06:51 48.77147 8.07301 414 ft 68 kts 31°
2026-04-28 06:52 48.77505 8.07629 412 ft 70 kts 31°
2026-04-28 06:52 48.78075 8.08165 455 ft 117 kts 31°
2026-04-28 06:52 48.78891 8.08594 697 ft 135 kts 354°
2026-04-28 06:52 48.79425 8.07459 719 ft 172 kts 255°
2026-04-28 06:53 48.78768 8.05993 992 ft 167 kts 232°
2026-04-28 06:53 48.77916 8.04775 1220 ft 168 kts 220°
2026-04-28 06:53 48.77008 8.03582 1375 ft 180 kts 221°
2026-04-28 06:53 48.76029 8.02310 1382 ft 189 kts 221°
2026-04-28 06:54 48.75076 8.01069 1379 ft 172 kts 221°
2026-04-28 06:54 48.74202 7.99944 1372 ft 159 kts 221°
2026-04-28 06:54 48.73392 7.98886 1366 ft 152 kts 222°
2026-04-28 06:54 48.72567 7.97922 1387 ft 145 kts 203°
2026-04-28 06:55 48.71686 7.98192 1475 ft 132 kts 129°
2026-04-28 06:55 48.71360 7.99503 1443 ft 140 kts 96°
2026-04-28 06:55 48.71206 8.01039 1379 ft 155 kts 97°
2026-04-28 06:55 48.71229 8.02630 1374 ft 152 kts 64°
2026-04-28 06:56 48.71882 8.03857 1370 ft 152 kts 37°
2026-04-28 06:56 48.72800 8.04310 1353 ft 128 kts
2026-04-28 06:56 48.73629 8.04401 1238 ft 115 kts
2026-04-28 06:56 48.74334 8.04717 1131 ft 96 kts 27°
2026-04-28 06:57 48.74904 8.05182 947 ft 90 kts 31°
2026-04-28 06:57 48.75408 8.05648 830 ft 79 kts 30°
2026-04-28 06:57 48.75969 8.06192 681 ft 108 kts 36°
2026-04-28 06:57 48.76615 8.06814 518 ft 107 kts 31°
2026-04-28 06:58 48.77165 8.07314 420 ft 74 kts 31°
2026-04-28 06:58 48.77513 8.07640 412 ft 47 kts 33°
2026-04-28 06:58 48.77835 8.07934 424 ft 76 kts 30°
2026-04-28 06:58 48.78410 8.08390 623 ft 106 kts 18°
2026-04-28 06:59 48.79126 8.07971 873 ft 134 kts 306°
2026-04-28 06:59 48.79240 8.06512 1108 ft 150 kts 257°
2026-04-28 06:59 48.78683 8.05096 1268 ft 158 kts 234°
2026-04-28 06:59 48.77945 8.03860 1577 ft 160 kts 226°
2026-04-28 07:00 48.77248 8.02782 2287 ft 130 kts 237°
2026-04-28 07:00 48.76828 8.01709 2255 ft 121 kts 238°
2026-04-28 07:00 48.76381 8.00722 1851 ft 141 kts 238°
2026-04-28 07:00 48.75802 7.99483 1547 ft 143 kts 237°
2026-04-28 07:01 48.75212 7.98306 1383 ft 135 kts 226°
2026-04-28 07:01 48.74525 7.97466 1375 ft 125 kts 220°
2026-04-28 07:01 48.73780 7.96790 1369 ft 127 kts 185°
2026-04-28 07:01 48.73009 7.97303 1369 ft 125 kts 122°
2026-04-28 07:02 48.72925 7.98527 1368 ft 119 kts 67°
2026-04-28 07:02 48.73203 7.99687 1373 ft 117 kts 74°
2026-04-28 07:02 48.73297 8.00904 1376 ft 117 kts 89°
2026-04-28 07:02 48.73338 8.02158 1323 ft 121 kts 80°
2026-04-28 07:03 48.73500 8.03372 1450 ft 115 kts 68°
2026-04-28 07:03 48.74016 8.04281 1246 ft 122 kts 40°
2026-04-28 07:03 48.74711 8.05014 1040 ft 120 kts 32°
2026-04-28 07:03 48.75414 8.05653 853 ft 116 kts 32°
2026-04-28 07:04 48.76059 8.06290 634 ft 103 kts 32°
2026-04-28 07:04 48.76628 8.06808 476 ft 89 kts 29°
2026-04-28 07:04 48.77140 8.07294 417 ft 77 kts 31°
2026-04-28 07:04 48.77510 8.07629 412 ft 49 kts 32°
2026-04-28 07:05 48.77866 8.07963 432 ft 71 kts 30°
2026-04-28 07:05 48.78335 8.08308 550 ft 78 kts 26°
2026-04-28 07:05 48.78853 8.08560 715 ft 79 kts 15°
2026-04-28 07:05 48.79391 8.08685 875 ft 80 kts 352°
2026-04-28 07:06 48.79748 8.07994 945 ft 97 kts 277°
2026-04-28 07:06 48.79357 8.06907 906 ft 141 kts 226°
2026-04-28 07:06 48.78680 8.05815 1311 ft 141 kts 230°
2026-04-28 07:06 48.78006 8.04579 1385 ft 159 kts 231°
2026-04-28 07:07 48.77270 8.03313 1383 ft 164 kts 226°
2026-04-28 07:07 48.76347 8.02280 1385 ft 162 kts 214°
2026-04-28 07:07 48.75452 8.01364 1381 ft 146 kts 214°
2026-04-28 07:07 48.74626 8.00435 1373 ft 149 kts 220°
2026-04-28 07:08 48.73827 7.99433 1372 ft 150 kts 220°
2026-04-28 07:08 48.72968 7.98581 1356 ft 150 kts 192°
2026-04-28 07:08 48.72013 7.98937 1371 ft 144 kts 137°
2026-04-28 07:08 48.71659 8.00258 1398 ft 136 kts 78°
2026-04-28 07:09 48.71954 8.01594 1383 ft 134 kts 60°
2026-04-28 07:09 48.72377 8.02833 1396 ft 131 kts 48°
2026-04-28 07:09 48.73125 8.03633 1202 ft 137 kts 25°
2026-04-28 07:09 48.73973 8.04309 1027 ft 136 kts 28°
2026-04-28 07:10 48.74761 8.05020 864 ft 127 kts 30°
2026-04-28 07:10 48.75441 8.05736 685 ft 109 kts 33°
2026-04-28 07:10 48.76130 8.06359 601 ft 116 kts 25°
2026-04-28 07:10 48.76699 8.06895 481 ft 79 kts 26°
2026-04-28 07:11 48.77129 8.07294 413 ft 65 kts 31°
2026-04-28 07:11 48.77445 8.07581 412 ft 42 kts 31°
2026-04-28 07:11 48.77625 8.07743 411 ft 27 kts 30°
2026-04-28 07:11 48.77788 8.07886 411 ft 27 kts 30°
2026-04-28 07:12 48.77869 8.08046 410 ft 12 kts 92°
2026-04-28 07:12 48.77853 8.08106 410 ft 0 kts 117°
2026-04-28 07:13 48.77840 8.08149 411 ft 11 kts 109°
2026-04-28 07:13 48.77786 8.08198 411 ft 12 kts 202°
2026-04-28 07:13 48.77702 8.08140 411 ft 13 kts 206°
2026-04-28 07:14 48.77625 8.08070 411 ft 15 kts 208°
2026-04-28 07:14 48.77531 8.07976 411 ft 16 kts 205°
2026-04-28 07:14 48.77445 8.07964 411 ft 12 kts 131°
2026-04-28 07:14 48.77399 8.08032 411 ft 8 kts 169°
2026-04-28 07:15 48.77349 8.08017 411 ft 8 kts 209°
2026-04-28 07:15 48.77282 8.07949 411 ft 11 kts 206°
2026-04-28 07:15 48.77229 8.07906 411 ft 13 kts 212°
2026-04-28 07:15 48.77148 8.07871 411 ft 12 kts 182°
2026-04-28 07:16 48.77074 8.07868 411 ft 10 kts 181°
2026-04-28 07:16 48.77019 8.07866 411 ft 6 kts 179°
2026-04-28 07:16 48.76983 8.07885 411 ft 6 kts 142°
2026-04-28 07:16 48.76945 8.07875 411 ft 6 kts 212°
2026-04-28 07:17 48.76916 8.07848 411 ft 4 kts 210°
2026-04-28 07:17 48.76893 8.07825 411 ft 4 kts 231°
2026-04-28 07:17 48.76893 8.07801 411 ft 0 kts 302°